Theta_e
344 344 343 343 341 343 341 342 344 344 343 344 345 346 346 346 346 345 347 348 348 347 347 347 347 346 345 341 336 330 326 325 325 326 328 331 333 336 340 341 340 340 341 340 341 342 343 343 343 342 342 343 343 343 344 344 343 343 342 342 342 341 341 341 342 342 342 340 338 338 339 339 339 340 340 341 341 341 341 340 339 340 341 339 339
344 343 343 343 342 344 342 343 343 342 342 342 343 344 345 345 345 344 346 348 348 346 346 345 344 341 337 332 327 325 324 325 326 330 334 337 338 338 340 339 338 338 338 338 339 342 342 343 343 343 342 343 342 342 343 343 343 342 342 341 342 342 342 342 342 342 342 340 339 339 338 336 335 336 338 339 340 340 341 340 338 339 340 337 336
344 343 343 343 344 344 343 344 342 340 338 339 340 342 344 345 344 344 346 346 345 343 341 338 334 331 328 326 326 326 327 327 330 336 339 340 341 341 341 339 339 338 338 338 340 341 341 341 342 342 342 342 342 342 343 343 342 341 341 341 342 342 342 342 342 342 340 339 339 339 338 336 332 332 336 339 339 340 340 339 338 339 338 335 334
344 344 343 344 344 344 344 344 341 338 336 338 339 340 342 343 343 343 344 340 337 334 331 328 327 328 329 331 331 331 332 331 332 339 340 341 341 341 342 341 341 340 341 341 340 340 340 340 340 341 341 341 341 341 342 342 342 342 341 341 342 342 342 342 342 341 338 339 340 340 340 339 334 330 333 338 338 338 336 335 336 335 334 333 333
343 341 341 343 343 343 343 343 341 338 336 337 338 337 338 338 339 340 337 332 329 328 327 327 328 330 333 336 337 335 336 336 334 339 341 341 341 341 342 342 342 341 341 341 339 338 337 338 338 340 340 341 341 341 341 341 342 341 341 341 342 342 341 341 340 339 338 340 342 342 342 341 339 333 332 335 337 337 334 332 333 333 333 333 333
341 339 340 340 342 343 342 342 340 338 335 335 336 337 338 337 336 334 330 328 328 328 328 328 330 334 338 339 339 337 335 335 337 340 341 340 341 341 342 342 342 342 340 338 337 336 334 335 336 338 339 340 339 340 341 341 342 341 341 341 341 340 339 338 337 337 338 341 342 342 342 341 340 339 338 336 336 336 335 335 335 334 334 334 334
341 340 340 339 340 341 341 342 341 338 335 334 335 336 337 337 337 334 331 330 330 332 332 330 332 336 339 340 340 337 334 333 337 340 341 341 341 341 341 342 342 342 341 338 337 335 335 335 334 335 335 335 334 334 336 338 341 342 341 341 340 338 337 335 336 336 337 338 339 340 341 340 339 341 341 339 338 337 336 337 336 336 336 336 336
340 340 341 340 340 340 340 341 341 340 337 334 334 335 335 336 336 334 332 332 333 335 336 334 334 336 337 338 339 337 334 335 337 339 340 341 340 341 341 342 342 342 342 340 338 337 338 337 332 330 331 331 332 333 332 332 334 336 338 339 338 337 336 335 334 334 336 336 335 335 336 338 337 339 340 339 339 338 337 336 337 337 337 337 337
338 340 341 340 338 338 339 339 340 340 340 337 334 334 334 333 332 333 333 334 335 336 337 336 334 335 336 337 338 336 335 336 337 338 339 340 340 341 341 342 342 342 342 341 340 339 336 335 330 329 331 333 336 337 334 330 328 327 329 333 334 335 335 333 333 334 334 333 334 334 335 336 336 338 339 339 339 338 337 338 338 337 338 338 338
337 339 340 340 336 335 335 335 336 337 338 338 338 336 334 333 333 334 335 335 336 336 336 336 335 334 334 335 336 334 334 335 336 336 337 338 339 340 341 342 342 342 342 340 340 338 333 331 333 335 335 337 338 338 336 334 331 327 324 325 328 331 330 330 332 334 334 333 335 336 336 336 337 337 338 338 339 339 339 340 338 337 338 338 338
338 339 339 339 336 333 332 332 332 332 333 335 337 337 337 337 337 337 336 336 336 336 336 335 335 333 333 334 335 334 333 335 335 335 337 338 339 340 340 341 341 342 342 341 341 338 334 332 337 339 337 338 339 338 338 337 336 331 326 323 324 326 328 331 334 335 334 334 335 336 337 337 338 337 337 337 339 340 339 340 338 337 338 338 338
339 339 338 338 336 335 333 331 330 330 329 330 332 332 334 335 337 338 337 336 336 336 336 336 335 334 333 334 335 335 334 335 336 338 338 338 339 340 340 340 340 340 341 342 341 340 337 335 338 339 338 338 338 338 337 337 337 334 329 325 324 324 327 334 335 334 334 335 336 337 338 338 338 336 336 338 339 339 339 340 338 337 338 338 338
338 339 339 338 335 335 334 332 330 328 325 325 328 327 327 328 330 334 336 335 335 336 336 337 336 334 334 335 334 335 335 335 336 338 338 337 337 338 339 339 338 338 339 340 340 340 339 337 338 338 338 338 337 337 336 336 336 336 333 328 325 324 328 334 334 332 333 335 338 338 338 338 337 335 336 338 338 338 339 339 339 338 338 338 338
338 338 339 338 333 330 333 332 330 328 325 322 323 324 322 321 321 324 330 333 333 335 336 337 336 335 334 334 334 334 335 335 335 336 338 338 338 338 337 337 337 336 337 338 338 338 337 336 337 337 336 336 335 335 335 335 335 336 335 332 328 325 329 335 334 332 332 334 338 338 338 338 337 335 336 337 338 339 338 338 339 338 338 338 338
338 339 338 337 332 327 327 327 325 327 328 326 324 325 323 321 318 317 321 325 329 333 333 333 334 336 336 334 334 334 335 334 335 336 339 340 340 339 337 337 336 334 333 334 335 335 335 335 336 337 335 334 334 335 335 335 335 335 335 335 333 329 332 336 335 333 331 332 336 337 337 337 336 335 335 335 337 338 338 338 339 338 337 337 337
338 338 338 338 336 332 330 326 322 322 326 329 327 325 326 326 321 318 318 317 324 330 329 328 330 334 335 335 333 334 334 334 335 336 339 341 339 339 339 338 336 334 332 331 332 333 333 332 335 335 333 334 334 335 335 335 335 335 335 335 335 334 335 337 336 336 332 331 335 337 336 337 335 335 334 334 336 338 338 338 338 338 337 336 336
337 338 338 338 338 338 337 333 330 328 326 326 324 322 324 328 326 324 321 317 324 330 330 329 330 334 333 333 333 334 334 334 335 336 338 340 338 339 340 338 335 335 334 332 331 331 331 331 333 333 333 334 335 335 335 334 334 334 335 335 335 335 335 337 337 336 333 330 334 337 337 336 335 334 333 333 335 336 337 337 337 338 337 336 335
337 337 337 337 337 338 339 338 338 337 334 333 330 325 323 326 329 328 323 322 327 326 327 330 331 335 335 333 334 335 335 333 335 336 337 340 339 339 339 338 337 337 336 334 332 330 330 330 331 332 333 334 335 335 335 335 334 335 334 334 335 335 335 337 338 337 334 331 334 338 337 334 333 333 333 333 334 335 336 336 335 337 337 335 334
335 336 336 336 337 337 338 338 339 338 338 338 336 333 328 326 329 329 325 328 330 322 323 329 329 335 336 336 336 336 336 333 334 336 336 339 339 339 338 338 338 338 337 336 334 331 329 329 330 331 333 334 335 335 335 335 335 335 334 335 335 334 336 338 338 336 334 331 335 339 335 332 332 333 333 333 333 334 335 335 336 336 336 334 334
333 334 334 335 335 335 335 336 338 337 337 338 337 336 333 330 330 328 325 327 329 322 321 326 327 334 337 337 337 337 337 334 334 337 337 337 338 338 338 338 338 338 338 337 335 333 330 327 328 331 333 334 335 335 335 335 335 335 334 335 335 335 336 338 338 335 334 331 335 338 334 332 333 334 334 333 333 334 334 335 336 336 335 335 335
330 331 332 332 333 334 335 335 335 335 336 337 337 337 335 334 333 331 328 326 328 326 324 324 327 335 337 337 338 337 339 338 338 338 338 338 338 338 338 338 338 338 338 337 336 336 333 328 327 329 331 333 334 335 335 335 336 335 335 335 335 336 338 338 338 336 333 331 335 336 333 332 333 334 334 333 333 333 333 334 335 335 335 335 336
327 328 330 330 332 332 333 334 334 334 334 336 336 337 336 336 336 335 333 330 330 330 329 328 329 335 338 337 338 337 339 341 339 339 340 339 339 338 338 338 338 338 337 337 336 336 335 330 327 327 329 331 333 337 337 336 336 336 336 335 336 338 338 338 338 336 333 332 336 335 332 332 334 335 334 333 333 332 333 333 334 334 334 335 335
324 324 326 328 329 330 331 332 332 332 333 334 335 335 336 336 336 336 336 335 333 331 331 332 333 336 339 339 338 338 340 342 340 339 340 339 338 338 338 338 338 338 337 337 337 337 335 330 326 326 327 329 333 339 339 338 338 337 337 336 337 338 338 339 337 335 333 334 337 334 332 333 334 335 334 333 333 333 333 333 333 334 334 335 335
324 323 323 325 326 327 329 329 329 330 332 333 333 334 335 336 336 336 337 337 337 335 335 335 335 335 338 341 339 339 341 341 339 338 338 339 339 338 337 337 338 338 337 337 338 337 335 331 327 326 329 331 336 339 338 339 338 338 338 337 337 337 338 339 337 334 333 334 336 333 333 333 334 335 333 333 334 334 335 333 333 334 334 334 334
323 322 322 322 323 324 325 326 327 328 329 331 331 332 333 335 335 335 336 337 337 338 338 337 336 334 336 340 341 340 341 340 339 338 339 340 340 339 339 339 340 340 338 337 339 338 337 336 331 331 334 336 338 339 339 339 338 338 338 337 338 337 338 338 335 334 332 334 335 333 333 333 334 334 333 333 334 334 335 335 333 332 334 334 333
322 321 321 321 321 322 322 323 324 324 326 327 329 329 330 332 334 335 335 336 336 337 338 338 339 338 336 339 340 340 340 339 340 340 340 340 340 340 340 341 341 340 338 337 340 339 339 340 337 336 337 337 338 339 340 340 339 339 339 338 338 337 338 337 335 333 333 335 334 333 333 334 334 334 334 334 334 335 334 335 334 332 332 333 333
321 321 321 321 320 321 321 320 321 321 322 324 326 327 328 330 331 333 334 335 336 336 337 336 338 340 338 339 339 340 340 339 340 340 341 340 340 339 339 340 339 339 338 338 339 339 340 340 340 338 338 338 338 339 340 340 340 339 338 339 338 337 338 337 335 333 332 336 335 332 333 334 334 334 334 334 334 335 334 335 335 333 331 330 332
322 322 321 321 321 320 320 319 319 319 320 321 322 324 326 327 328 331 333 333 334 335 336 336 337 339 340 339 339 339 339 339 339 339 340 340 340 339 339 339 338 337 338 339 339 339 340 340 341 340 339 338 338 339 340 340 340 339 339 339 338 338 338 336 334 333 333 337 336 333 333 333 334 335 334 334 334 334 334 335 335 335 333 330 329
323 322 321 321 320 319 319 319 318 318 318 318 319 320 323 326 327 328 330 331 333 334 334 336 336 337 339 339 339 340 339 339 339 339 339 339 340 340 339 338 338 337 338 339 339 339 340 340 341 341 340 340 340 340 339 339 339 339 339 339 338 338 337 336 334 333 333 336 337 334 332 332 333 334 334 333 333 334 335 334 335 335 335 333 331
323 322 321 320 320 319 319 318 318 318 318 318 318 319 320 323 325 326 328 329 331 332 333 334 335 336 338 338 338 339 339 339 339 339 339 339 340 341 340 339 339 338 339 339 339 339 340 341 341 341 340 340 340 340 340 340 339 338 339 339 339 338 337 336 334 332 334 335 336 335 332 332 333 334 334 334 333 333 334 334 335 334 334 334 334
322 321 320 320 320 319 319 319 318 318 318 318 318 318 319 321 324 326 327 328 328 330 331 333 333 334 336 337 338 338 339 339 339 339 339 339 340 340 340 341 340 340 339 339 339 340 340 340 341 341 341 340 340 340 341 341 339 338 338 339 339 338 337 336 333 332 334 335 336 336 333 332 332 333 333 333 333 333 333 333 334 334 334 334 335
321 321 320 320 320 320 319 319 319 317 317 318 318 318 318 320 322 325 327 327 327 328 330 331 332 333 334 336 337 338 338 338 339 339 338 339 340 340 340 341 340 340 340 339 339 341 341 341 341 341 341 341 341 341 341 341 341 339 338 338 339 338 338 336 333 331 333 335 335 336 335 333 332 331 332 331 332 333 333 333 334 334 335 334 335
321 321 320 320 320 320 319 319 319 317 317 317 318 318 318 320 322 324 325 326 326 327 328 329 330 331 332 334 335 336 337 338 339 338 338 338 339 340 340 341 340 340 341 340 339 341 341 341 341 341 341 341 341 341 341 341 341 341 339 339 338 338 338 336 333 330 332 334 335 336 335 335 333 332 331 330 331 331 332 333 334 335 334 334 335
320 320 320 320 319 319 319 318 318 318 317 317 318 319 318 320 322 323 324 324 325 326 327 327 328 329 330 332 333 334 336 337 337 337 338 337 337 339 339 340 340 339 339 338 339 340 341 341 340 340 341 341 340 341 341 341 341 340 340 339 339 339 338 337 333 330 331 333 335 335 334 335 335 333 332 330 329 329 332 333 334 334 333 334 335
320 320 320 320 319 319 319 318 317 318 317 317 318 319 318 319 321 322 323 324 325 325 326 326 327 328 328 330 331 332 334 336 336 337 337 337 336 337 337 339 339 338 338 338 338 341 342 341 340 340 341 341 341 341 341 341 341 340 340 340 339 339 338 338 335 331 330 332 333 335 334 334 335 335 334 332 329 328 331 332 333 333 333 334 335
320 321 320 320 319 319 319 317 317 317 318 318 318 318 318 319 320 321 322 323 324 324 325 326 326 327 327 328 329 330 332 333 334 336 336 336 336 337 337 338 339 338 338 338 338 340 341 341 341 341 340 341 341 341 340 341 341 340 340 340 340 340 339 338 336 331 330 332 333 334 334 334 334 334 335 334 333 330 329 332 333 333 334 335 334
320 320 320 320 320 319 318 317 316 317 318 319 319 318 318 318 318 320 321 322 323 324 324 324 325 326 326 327 328 329 330 331 332 334 335 336 336 336 336 337 338 339 339 339 339 339 340 340 341 341 340 341 341 340 340 340 340 339 340 340 340 340 339 339 337 333 331 331 332 333 333 334 334 334 335 335 335 334 331 331 332 333 333 334 334
320 319 320 320 319 318 317 317 317 317 319 320 319 318 318 317 317 318 320 321 322 323 323 323 324 325 325 326 326 327 328 329 330 331 333 334 334 335 336 337 337 338 338 339 339 339 339 340 340 341 341 341 340 340 340 340 340 339 339 339 340 339 339 339 338 335 332 331 332 333 333 334 334 334 334 334 336 336 334 332 331 333 333 333 333
320 319 319 320 319 318 318 317 317 318 319 319 317 316 317 316 317 317 318 319 320 321 321 322 323 323 324 325 325 326 326 327 328 329 330 332 333 334 335 336 336 337 338 338 339 339 339 340 340 340 340 340 340 339 340 340 339 339 339 339 339 339 339 338 338 336 334 332 332 332 333 333 333 334 334 334 335 336 337 335 333 333 333 332 333
319 319 320 320 319 318 318 317 317 318 317 318 316 316 316 315 316 317 317 318 318 319 320 321 321 322 323 323 324 325 325 326 326 327 329 329 331 332 334 336 336 337 338 337 338 338 339 339 339 339 339 339 339 339 339 340 339 338 339 339 338 338 338 338 337 337 336 334 333 332 333 333 333 334 334 334 334 334 335 336 335 335 335 333 332
319 320 321 320 318 318 318 317 317 317 317 318 317 316 316 315 316 316 316 317 317 318 319 320 320 320 322 322 323 324 325 325 325 325 327 328 329 331 333 335 335 336 336 336 337 338 338 339 339 339 338 338 339 339 339 339 339 339 339 339 338 337 337 338 337 337 337 336 335 333 333 334 333 333 334 333 333 334 334 334 334 334 336 335 333
320 320 321 320 318 318 318 317 317 317 317 317 317 316 316 316 316 315 315 315 316 316 317 318 319 319 320 321 321 322 322 323 324 324 325 327 328 329 330 332 334 335 336 335 336 337 338 337 338 338 337 337 338 339 339 339 339 339 339 338 337 335 336 338 337 338 338 337 336 335 334 334 334 333 333 333 333 334 334 333 333 333 334 335 334
321 320 320 320 318 319 318 316 317 317 317 317 316 316 317 317 316 315 314 315 315 316 316 317 318 318 319 319 320 321 321 322 323 323 324 325 327 328 329 330 332 334 335 336 335 336 336 336 337 336 336 336 336 338 339 339 338 338 338 338 337 336 336 337 336 337 338 338 337 337 335 335 334 334 334 333 333 333 333 333 332 333 333 333 333
320 320 320 320 319 319 318 316 317 317 317 317 316 317 317 317 316 315 314 314 315 315 316 316 317 318 318 318 319 319 320 321 322 322 323 324 326 327 328 329 330 332 334 335 335 335 335 335 336 336 336 335 335 337 339 338 338 338 338 337 338 337 337 338 337 337 338 338 338 338 337 335 335 334 334 334 334 333 333 333 333 333 334 333 332
321 320 320 320 318 319 318 316 317 317 317 317 317 316 316 316 316 315 314 314 314 314 315 315 316 317 317 318 318 318 319 320 321 322 322 324 325 326 327 328 329 330 332 334 334 334 334 335 335 336 335 334 335 337 339 338 338 338 338 336 337 338 337 338 336 335 337 339 338 338 338 337 336 335 334 334 334 334 334 333 333 334 334 334 333
321 321 321 320 318 319 318 317 317 317 317 317 317 316 315 315 315 314 314 314 314 314 315 315 315 316 316 317 317 317 318 319 320 321 322 323 323 325 326 327 328 329 331 332 333 333 335 334 334 335 335 334 334 335 337 339 338 338 337 336 338 338 337 337 337 337 338 338 338 338 338 338 337 336 335 334 334 334 334 334 334 334 334 334 334
321 320 321 320 319 319 319 317 317 317 316 316 316 316 315 315 315 314 313 314 314 314 314 314 315 315 316 316 316 316 317 318 319 320 320 321 323 324 326 326 327 329 330 331 332 333 334 334 333 334 334 334 334 333 335 337 338 337 336 337 340 339 336 337 338 339 339 337 337 339 338 338 338 338 337 336 335 335 334 335 335 335 335 335 335
321 321 321 320 319 319 319 318 317 317 316 316 316 316 315 314 315 314 313 313 314 314 314 314 315 315 315 315 315 316 316 317 318 319 320 321 322 323 324 326 326 328 330 330 331 332 333 334 334 333 334 333 334 334 333 334 336 337 338 338 339 339 337 337 337 338 338 337 337 338 338 338 338 338 339 338 337 336 336 336 335 335 335 335 335
321 321 321 321 320 320 319 318 317 317 317 317 316 315 315 314 315 314 313 313 313 313 314 314 315 315 315 315 316 315 316 317 317 319 321 321 322 321 321 324 326 328 330 331 331 332 333 334 334 334 334 334 333 334 333 333 334 336 336 336 337 338 338 337 338 338 337 338 338 338 339 339 338 339 339 339 339 338 338 337 337 336 335 335 335
322 321 321 320 320 320 319 318 318 317 316 317 316 315 315 314 314 314 313 312 313 313 314 314 314 315 315 316 316 316 316 317 318 319 321 322 322 321 320 321 325 329 330 330 332 332 333 333 334 334 334 334 333 334 334 334 333 334 335 336 336 338 338 338 338 336 336 339 339 338 339 338 338 338 338 339 339 339 339 339 338 338 336 336 336
322 322 320 320 320 320 320 319 318 317 317 316 316 315 315 314 314 314 312 312 313 313 314 314 314 315 315 316 317 316 316 317 317 319 321 321 322 321 321 320 322 326 329 330 331 332 332 332 333 334 334 334 334 334 334 333 333 333 334 335 334 336 338 339 338 336 337 339 338 337 338 336 336 337 338 338 338 338 339 339 339 339 338 337 337
Wind_Speed
9 10 11 12 13 13 13 14 16 16 15 13 12 13 14 14 16 17 18 16 16 16 15 14 13 13 12 11 11 11 10 9 9 10 10 11 10 11 10 9 10 11 11 11 11 11 11 12 12 12 12 11 10 10 10 10 10 10 11 10 10 11 12 13 13 14 15 15 15 15 14 12 11 11 10 10 10 12 12 11 11 12 15 17 16
8 9 12 14 15 16 16 16 15 15 16 16 15 14 13 15 15 15 16 15 15 15 14 13 13 13 12 10 9 9 9 10 11 12 12 12 11 10 10 9 10 11 11 10 11 11 12 12 12 13 13 12 12 12 12 12 11 11 12 12 12 12 13 13 13 14 14 14 15 14 13 11 10 10 9 9 9 11 11 9 8 10 14 16 15
9 11 14 16 17 16 17 17 15 16 17 18 16 15 15 16 16 16 15 15 15 15 14 14 13 12 11 10 8 8 9 11 13 14 14 13 11 10 10 10 11 11 11 10 11 11 12 13 13 13 14 13 13 13 13 13 12 13 13 13 13 12 12 12 13 13 14 15 15 15 14 12 11 10 10 9 9 10 10 9 10 12 14 14 14
11 11 14 16 16 16 17 17 16 17 18 18 17 16 16 15 16 15 16 16 16 15 15 13 12 12 11 10 9 9 10 12 13 14 14 12 10 10 9 10 10 11 10 10 10 11 12 12 13 14 14 14 13 14 14 14 13 13 13 14 14 13 12 12 13 13 14 14 14 14 13 12 12 12 11 10 9 9 9 9 11 13 14 14 14
12 13 15 16 15 16 16 16 16 17 17 18 18 17 16 15 15 14 16 17 16 15 14 13 12 11 11 11 10 10 10 12 13 15 14 11 9 9 9 9 9 10 10 9 10 10 11 11 12 13 14 14 13 14 14 13 13 12 13 13 13 12 12 12 13 14 15 14 12 11 11 11 13 13 12 11 10 9 10 11 13 14 14 13 13
14 16 17 17 16 16 16 16 16 17 17 17 18 17 17 16 14 14 15 16 14 13 13 13 12 11 11 11 10 9 9 10 13 14 12 9 8 9 9 9 9 9 9 9 9 10 10 11 12 13 14 14 13 13 13 13 12 11 11 11 11 11 11 13 13 13 13 13 10 9 10 10 12 13 12 12 12 12 12 13 14 14 13 13 13
15 16 17 18 18 16 16 17 17 17 16 16 16 16 16 16 15 14 13 14 13 11 11 12 12 11 11 11 11 10 9 10 13 12 10 8 8 9 8 8 8 8 9 9 9 10 10 11 12 13 13 13 13 12 12 11 11 10 9 9 9 10 12 12 12 12 11 9 8 9 9 9 11 12 10 11 12 12 13 12 13 12 12 13 13
17 19 18 19 19 17 18 17 17 17 16 15 14 14 14 14 14 13 12 12 11 9 9 11 11 11 10 10 11 11 10 10 11 10 9 8 8 8 7 8 7 8 9 9 9 10 11 12 13 13 13 13 13 12 11 10 9 9 8 8 9 10 10 10 9 10 9 6 7 8 8 9 11 10 9 11 11 12 13 12 12 11 12 13 13
19 20 18 19 19 20 21 20 19 18 17 14 13 14 14 13 13 12 11 10 9 9 9 9 10 10 10 10 10 10 10 9 8 8 8 7 7 7 6 6 6 7 9 9 9 10 11 13 13 13 13 13 12 12 11 10 9 8 8 8 9 9 8 8 8 7 6 6 8 8 8 9 10 11 11 11 10 11 13 12 10 11 12 13 13
20 19 17 18 20 22 23 23 22 20 19 16 13 13 13 12 12 11 9 8 8 8 8 8 8 9 10 9 9 9 9 9 8 8 7 6 6 6 6 6 5 7 9 9 9 9 10 11 11 11 11 11 12 12 11 10 9 8 8 8 8 7 6 8 8 6 6 8 9 10 11 10 10 12 11 10 9 11 13 12 10 10 12 13 14
19 19 17 18 20 22 22 23 23 22 21 18 16 15 13 12 10 10 9 8 8 8 8 8 7 7 9 8 8 8 8 8 8 8 7 7 6 5 5 5 5 6 8 9 9 8 9 10 10 9 10 11 11 11 10 9 8 7 7 7 7 7 7 8 7 6 7 9 10 10 11 11 11 12 11 10 10 10 12 12 11 12 14 15 15
18 19 19 19 20 21 22 21 20 20 19 19 18 17 16 14 12 11 11 10 9 8 7 7 6 6 7 7 7 7 7 7 7 6 7 7 7 6 5 5 5 6 7 8 8 8 8 9 9 9 10 10 10 10 10 9 8 7 6 6 7 7 8 8 5 5 7 8 10 10 10 11 12 12 11 10 9 10 12 13 13 14 15 16 16
18 17 17 18 19 20 21 20 19 18 15 16 17 18 17 16 15 12 12 11 9 8 7 6 5 6 6 6 6 5 6 5 5 4 5 7 7 7 6 5 5 5 6 6 8 8 8 9 9 10 10 9 10 10 9 8 7 6 5 5 6 6 8 7 5 5 7 7 8 9 10 11 12 11 10 10 9 10 12 13 14 16 16 16 17
16 15 14 15 17 19 20 19 19 17 14 14 15 16 16 15 14 13 12 11 9 7 7 5 4 5 4 5 6 5 4 4 2 2 5 7 7 7 7 6 5 5 5 5 6 7 7 8 10 10 9 9 9 9 8 7 6 6 5 5 5 6 7 5 4 5 6 6 7 7 9 11 12 11 11 10 9 10 12 14 15 16 18 17 17
15 15 14 13 15 17 17 17 17 17 15 15 15 15 14 13 13 12 11 11 9 6 6 5 3 4 4 4 5 4 3 4 2 2 5 6 7 8 8 8 6 5 4 5 5 6 6 7 9 9 8 8 8 8 7 6 5 5 6 5 5 5 6 3 2 4 5 6 6 6 10 12 12 11 11 10 9 10 13 15 15 16 18 19 19
14 14 13 12 12 13 15 15 16 16 15 14 14 14 13 12 11 10 9 8 7 6 6 5 4 4 4 3 3 3 2 3 2 2 4 5 7 9 8 8 8 6 5 4 5 5 6 7 8 8 7 6 7 7 6 6 6 6 6 6 5 5 6 3 2 3 3 5 5 5 10 12 11 11 10 10 10 10 13 15 15 16 18 19 19
15 14 13 13 11 11 11 12 13 12 12 11 11 13 13 10 7 6 6 6 5 6 6 5 5 4 4 3 3 3 2 3 2 3 4 6 7 9 8 8 8 7 6 5 5 4 5 6 7 7 7 6 6 6 6 7 7 7 7 6 6 5 5 4 2 3 3 4 6 5 10 12 11 12 11 11 11 10 13 15 16 17 18 19 19
16 15 14 13 11 10 10 10 9 8 7 7 8 10 11 10 6 4 5 4 4 5 5 5 4 4 5 4 3 2 2 2 2 3 5 6 8 9 8 8 8 7 7 6 5 5 5 6 7 8 7 6 5 5 6 7 7 7 6 6 6 5 5 4 2 4 3 4 5 5 9 11 11 12 11 10 11 11 13 15 16 17 18 19 19
16 16 15 13 12 11 10 9 7 6 6 7 7 6 6 6 6 4 5 4 3 4 5 3 3 3 4 4 2 1 1 2 4 4 4 5 7 8 7 8 8 8 7 6 6 5 5 6 7 8 8 6 4 5 6 6 6 6 5 5 5 5 5 3 2 4 4 4 5 6 9 11 10 11 11 10 10 11 12 13 14 16 17 18 18
16 15 14 14 13 12 10 9 8 8 7 7 8 6 5 3 2 3 4 3 3 4 4 3 3 3 4 3 0 2 2 3 4 4 3 3 6 7 7 7 7 7 7 6 6 6 5 5 7 8 8 6 5 4 5 5 5 4 4 4 4 5 5 2 3 3 4 5 6 7 10 10 10 10 10 10 10 10 11 12 13 15 16 16 16
14 13 13 13 12 12 11 10 10 9 9 8 8 7 5 3 1 1 2 2 4 4 4 3 2 3 2 1 1 2 2 3 5 4 2 3 5 7 7 7 7 7 7 6 6 6 5 5 7 8 8 7 5 3 3 4 4 4 4 4 4 5 4 2 3 2 3 5 7 9 10 10 10 10 10 10 10 10 11 11 12 14 15 14 14
11 12 13 12 11 12 11 10 9 9 9 8 7 6 5 3 2 1 1 1 2 3 3 3 2 1 1 0 1 3 2 3 5 5 4 4 4 5 7 7 7 8 8 7 6 5 5 5 7 8 8 7 5 3 3 3 4 4 4 4 3 4 3 3 2 2 4 5 7 9 9 9 10 9 9 10 10 10 10 10 11 12 13 13 13
11 11 12 11 11 10 11 11 9 8 8 7 6 6 5 4 2 2 1 0 1 2 2 2 1 1 1 1 2 4 3 3 6 7 6 5 5 5 6 6 7 7 8 7 6 5 4 4 6 7 7 6 5 4 4 5 5 4 5 6 3 2 2 2 2 3 4 6 7 8 9 10 10 9 9 9 9 9 9 10 10 10 11 12 12
10 10 11 11 11 10 10 10 10 9 8 7 6 6 5 5 4 3 2 1 1 1 2 2 1 1 2 2 3 4 4 4 5 7 6 4 5 5 5 6 6 7 7 7 6 4 3 3 4 5 6 6 5 4 4 5 4 4 6 6 3 3 3 2 2 3 4 6 7 9 10 10 11 9 8 9 9 8 8 9 10 10 10 10 11
9 10 11 12 11 10 10 10 10 10 9 7 7 7 6 5 5 5 4 3 2 2 2 2 2 2 2 2 3 4 4 4 4 5 5 5 5 5 5 5 5 6 7 7 6 5 3 4 4 5 6 5 4 4 3 3 2 2 4 3 2 3 2 2 2 3 4 6 8 10 11 11 11 9 8 8 9 8 8 9 10 10 10 10 10
10 11 12 12 12 12 11 10 10 10 10 8 7 8 8 7 6 6 5 4 3 2 2 1 2 3 2 2 3 4 4 5 4 5 6 6 6 5 5 6 6 6 5 6 7 5 4 4 4 5 5 4 4 3 3 2 2 2 2 2 2 3 2 2 2 3 4 7 9 11 12 11 10 9 8 8 8 8 8 9 10 10 10 10 10
11 12 11 12 13 13 13 12 12 11 10 10 8 8 8 8 7 6 5 5 5 4 3 2 2 4 3 2 4 4 5 5 5 6 6 6 6 5 5 5 6 6 5 4 5 5 5 4 4 4 4 4 4 3 3 3 2 2 2 2 2 2 2 2 1 3 5 7 10 12 12 10 10 9 8 8 7 7 8 9 10 10 10 10 10
12 11 11 12 13 14 14 14 14 13 12 10 9 8 8 7 7 6 5 5 5 5 4 3 3 3 3 3 3 4 5 5 5 6 6 5 5 6 6 6 6 6 5 5 5 6 6 5 5 5 4 4 4 3 3 3 3 2 2 2 2 2 2 2 1 3 5 8 10 12 12 10 10 9 8 8 7 7 8 9 9 10 10 10 10
12 11 11 12 13 14 16 16 17 16 14 12 10 9 8 7 7 6 6 5 5 5 5 5 4 3 2 3 3 4 5 5 6 6 6 6 5 5 6 6 6 6 6 6 6 6 6 5 5 5 4 4 3 3 4 3 3 3 2 2 2 3 3 2 2 3 6 8 10 12 12 11 10 9 7 7 7 7 8 9 9 9 10 11 11
11 11 11 12 13 14 15 17 17 16 15 13 11 10 9 8 7 7 6 6 5 6 5 5 6 4 2 2 3 4 5 6 6 6 6 6 5 5 5 6 7 7 7 7 7 7 6 6 6 6 5 4 4 4 4 4 4 4 3 3 3 3 3 3 2 4 6 8 10 12 12 12 11 9 8 6 6 6 7 8 9 9 10 10 11
11 12 12 12 12 13 14 15 15 16 15 14 12 11 9 8 7 7 6 6 6 6 5 5 6 6 3 2 3 4 5 6 6 6 6 6 6 6 6 7 7 7 8 8 8 8 7 7 7 6 5 5 4 4 4 4 4 4 4 4 4 4 4 3 3 5 6 7 10 12 12 12 12 10 9 7 7 6 7 8 9 10 10 10 11
11 12 11 11 11 11 12 13 14 16 16 15 13 11 10 8 7 6 6 6 6 6 6 5 6 6 5 3 3 4 4 5 6 6 6 6 6 7 7 7 8 7 8 9 9 9 8 7 7 6 5 5 5 5 4 5 4 3 4 4 4 4 4 4 3 5 7 7 9 11 12 12 12 11 9 8 8 7 7 8 9 10 10 11 10
11 11 10 10 10 10 10 11 13 15 16 16 14 12 10 8 7 6 6 6 6 6 6 6 6 6 6 5 4 3 4 5 5 5 6 6 6 6 7 8 8 7 8 10 11 11 10 8 8 7 6 6 6 5 5 5 4 3 3 4 4 4 4 4 4 5 6 7 9 10 11 12 12 11 10 9 9 8 8 7 9 10 11 12 11
9 9 10 10 10 10 10 11 13 14 15 15 13 12 11 9 7 6 6 6 6 5 5 5 5 6 6 6 6 4 3 4 4 4 6 7 7 7 8 8 9 11 10 11 12 12 10 9 9 8 8 7 7 6 5 5 4 3 4 4 4 4 4 4 4 6 7 8 8 9 10 11 12 11 11 10 10 9 8 8 9 9 11 12 11
9 8 9 9 11 11 10 11 13 14 14 14 13 12 11 9 7 7 7 6 6 5 5 5 5 5 5 6 7 6 4 3 4 4 5 6 8 8 9 8 9 12 11 10 11 10 10 10 10 10 9 8 7 6 6 5 4 4 4 5 5 5 5 5 4 6 8 8 8 8 9 10 11 10 10 11 10 10 9 8 9 9 11 12 11
8 7 7 8 9 9 10 11 13 13 13 14 13 12 11 10 8 7 7 6 6 5 5 5 5 5 5 5 6 8 6 4 3 4 5 6 7 8 9 8 8 10 10 10 11 10 10 11 11 11 10 9 8 7 7 6 5 4 4 5 6 6 6 6 5 7 8 8 8 8 9 9 10 10 10 10 10 11 11 9 8 8 11 12 12
7 6 6 6 6 7 9 10 12 13 12 12 12 12 12 11 8 7 7 7 6 5 5 5 5 5 5 5 6 7 8 7 5 4 5 6 7 8 8 8 9 9 10 10 11 11 10 11 12 11 11 10 9 9 8 6 5 5 5 5 6 7 7 7 6 7 8 8 8 9 9 9 9 10 10 9 10 10 11 10 8 7 10 12 12
6 5 4 3 4 6 7 9 11 12 12 12 12 12 12 12 10 8 7 6 6 6 5 5 5 5 5 5 6 7 7 8 7 5 5 6 7 8 8 8 9 9 10 11 11 11 11 11 12 12 12 11 10 10 9 7 6 6 6 6 7 7 7 8 7 7 8 9 9 9 9 9 10 10 10 10 9 9 10 11 10 9 10 11 13
4 3 1 1 3 5 6 8 10 11 11 11 12 13 12 12 11 9 8 7 6 6 5 5 5 5 6 6 6 6 6 7 8 7 6 7 7 8 7 7 9 9 10 10 11 11 11 12 13 13 12 12 11 10 9 8 7 7 7 7 7 8 8 8 8 8 8 8 9 9 9 9 10 10 10 10 10 10 10 11 11 11 11 12 13
3 2 1 1 3 5 6 8 9 11 11 11 12 14 14 13 12 11 10 8 7 6 6 6 5 6 7 7 7 6 6 6 7 7 7 7 8 7 7 7 8 10 11 11 11 12 12 12 13 14 13 12 12 11 9 8 8 8 8 8 8 8 9 9 9 9 8 8 9 10 10 10 10 10 10 10 10 11 11 11 12 12 12 12 13
3 3 2 1 3 5 6 8 8 9 11 11 12 13 14 14 13 12 11 10 8 7 6 6 6 6 7 7 7 7 7 7 6 7 8 8 8 7 7 7 9 10 12 12 12 12 12 12 13 14 14 14 13 12 11 10 9 8 8 9 9 9 10 11 11 10 10 9 9 10 10 10 10 10 10 10 10 11 11 11 12 12 12 12 13
4 3 2 1 2 3 5 7 7 8 9 10 11 11 13 13 13 13 12 10 8 7 7 7 7 7 8 8 8 8 8 8 8 7 8 8 9 8 8 8 9 10 11 12 12 12 13 13 14 14 14 15 14 12 13 12 11 10 9 9 8 9 11 11 11 12 12 11 10 10 10 11 11 11 10 10 10 11 11 11 12 12 12 13 14
5 4 3 1 1 2 3 5 6 7 8 9 10 11 11 11 12 14 13 10 9 8 8 8 8 8 8 8 7 8 8 8 8 8 8 8 9 10 10 10 9 10 11 12 13 14 14 15 16 16 15 16 16 13 14 15 13 11 10 8 6 7 8 11 13 14 13 12 11 11 10 11 12 11 10 11 11 11 11 11 11 12 12 12 13
6 5 4 3 1 0 1 3 4 5 7 8 10 11 11 11 12 13 12 10 9 8 8 7 8 8 8 7 7 7 8 8 8 8 8 8 9 10 11 11 10 10 10 11 13 13 14 15 16 16 16 15 15 14 15 17 15 12 9 5 5 6 5 8 11 13 15 14 12 12 11 12 12 12 12 11 12 12 12 12 12 12 12 12 12
7 6 5 4 2 2 1 2 3 4 6 8 9 10 11 12 13 14 13 11 9 8 9 9 9 9 9 9 9 8 8 8 8 8 8 8 9 10 10 12 12 11 11 12 14 13 14 16 16 16 17 16 15 16 16 17 18 15 11 5 5 5 4 7 9 11 16 15 13 14 13 12 13 13 14 13 13 12 12 13 13 13 13 13 13
8 7 6 5 4 3 2 2 3 4 5 7 8 9 11 12 13 15 14 12 11 10 10 10 11 11 10 10 10 10 9 8 8 8 8 8 10 11 11 12 13 13 12 12 13 13 14 16 17 16 19 20 19 17 14 16 18 18 16 13 9 4 4 8 9 8 12 13 14 15 14 14 14 14 15 14 14 14 13 13 14 14 14 14 14
8 7 7 6 5 4 3 2 3 4 5 6 8 8 10 12 13 14 14 13 12 12 11 11 11 11 12 12 11 10 10 9 9 9 9 9 10 11 12 12 13 14 14 12 13 14 14 15 17 17 18 21 21 18 14 14 16 18 20 19 14 8 6 8 7 5 7 9 12 14 14 15 15 15 16 16 15 15 14 14 14 15 15 16 15
8 8 8 7 6 5 4 3 3 3 4 6 7 8 9 11 11 13 14 13 12 12 12 11 11 12 12 12 11 10 9 9 9 8 9 9 9 11 12 12 13 14 14 13 12 14 13 13 16 17 18 20 21 19 17 17 17 16 19 20 18 15 12 13 12 5 5 7 9 12 14 15 16 16 16 16 16 16 16 15 15 15 16 16 15
9 8 8 7 7 6 5 4 3 3 3 4 6 7 8 10 10 12 15 14 13 13 12 11 12 12 12 12 11 10 9 8 8 8 9 9 9 11 12 11 12 12 11 11 11 12 13 13 14 15 17 20 21 20 21 23 20 18 18 19 19 17 15 16 14 9 6 6 6 8 12 13 15 17 18 17 16 16 16 16 15 16 16 16 15
10 10 9 8 8 7 6 5 4 3 3 4 5 6 8 9 10 12 15 15 14 14 13 12 12 12 12 12 12 11 9 8 7 7 8 9 9 11 12 12 10 9 8 9 10 11 12 13 14 15 17 20 20 21 24 25 23 22 19 17 17 17 15 14 12 10 10 6 5 5 10 13 13 16 18 18 17 17 16 16 16 16 16 16 16
11 11 10 9 9 8 7 5 4 3 3 4 5 6 7 8 9 11 14 15 15 14 13 13 12 12 12 11 11 11 9 8 8 8 8 9 10 11 12 13 13 8 6 7 9 10 12 13 14 15 17 19 20 21 23 24 25 25 20 16 17 17 14 13 11 10 8 6 4 4 8 15 16 15 18 19 18 17 17 17 17 16 17 17 17
Wind_Direction
61 66 63 85 97 91 91 95 92 95 102 100 103 116 123 122 121 119 113 112 115 115 120 121 118 118 115 114 114 115 112 109 106 104 105 108 114 119 117 112 116 114 112 112 110 111 110 107 105 103 102 101 101 103 102 100 99 104 109 109 111 111 111 109 107 104 101 100 101 103 104 103 101 98 97 97 100 103 97 93 98 101 100 99 98
71 74 70 83 93 89 89 89 88 97 102 100 101 106 112 115 115 112 112 115 118 119 121 121 119 117 114 110 106 106 106 105 102 101 99 96 98 105 109 110 113 112 112 112 112 112 110 108 106 104 103 101 101 102 100 99 97 99 103 109 109 107 109 108 107 104 103 103 103 104 103 103 104 107 107 100 106 108 99 98 105 103 101 101 101
77 75 75 82 89 88 91 93 94 101 100 99 98 99 101 106 112 113 116 120 118 117 116 113 111 108 105 101 99 101 102 103 102 99 94 92 97 103 105 106 107 107 109 112 114 114 113 111 108 104 102 102 103 102 98 96 96 95 98 105 106 104 106 107 107 106 107 106 103 102 99 97 95 105 114 106 106 106 101 109 111 102 101 102 103
78 73 72 72 81 86 90 94 99 102 102 101 97 97 100 103 109 113 116 116 114 113 110 107 103 99 96 94 94 95 97 100 104 103 99 101 108 109 106 105 106 108 109 111 114 114 114 112 110 106 103 102 103 102 98 95 93 93 96 99 101 103 106 108 109 111 112 108 103 101 98 98 94 94 105 111 110 105 100 109 110 103 102 102 104
73 73 68 65 72 83 89 92 95 98 103 104 101 101 102 104 107 110 114 113 113 112 109 106 101 99 96 97 95 93 96 99 105 106 105 110 112 109 106 107 110 112 113 114 114 113 112 111 111 108 104 101 101 101 97 96 94 95 97 98 102 105 107 110 112 116 114 104 98 102 103 104 99 90 93 103 107 106 103 105 105 104 104 106 107
70 77 75 76 79 86 93 93 93 97 102 105 105 106 106 105 103 106 111 113 110 109 108 105 102 101 100 101 99 93 94 103 109 105 103 109 109 108 110 112 114 116 118 117 115 113 111 110 110 108 105 102 101 101 99 98 96 96 97 99 104 108 110 111 114 114 104 93 92 103 104 102 101 94 91 97 101 104 104 103 104 105 106 108 109
71 79 79 79 78 82 91 92 91 93 100 105 108 109 109 106 104 104 106 109 107 105 106 104 102 99 101 103 99 90 91 106 112 107 104 107 110 115 120 119 119 122 122 121 118 114 112 111 110 109 107 104 102 100 100 101 102 102 100 102 107 111 113 112 115 107 92 89 97 103 103 101 102 101 99 101 105 108 106 106 105 106 109 112 114
79 80 79 79 78 77 82 88 88 88 93 99 105 108 108 106 106 105 105 108 106 107 104 102 102 98 96 99 98 88 92 105 110 113 113 113 118 122 124 122 125 127 125 123 119 116 113 113 114 112 107 103 100 97 96 99 106 110 105 108 115 117 114 113 113 98 89 97 100 97 100 102 101 101 101 102 109 114 111 109 109 112 116 117 116
82 79 79 81 83 84 84 85 84 85 87 89 98 102 102 103 105 106 106 106 107 107 102 99 97 94 90 91 95 90 94 103 105 111 112 114 119 120 120 122 129 128 126 125 122 120 119 120 120 117 113 107 102 97 93 91 96 104 107 109 117 121 118 117 109 90 89 96 91 88 90 94 97 99 99 102 110 114 111 109 113 115 114 114 115
77 73 77 79 81 85 86 85 84 83 79 78 85 91 95 99 104 104 103 103 103 102 99 94 89 89 86 86 90 89 96 107 109 111 111 110 111 116 119 122 126 125 129 129 127 125 126 126 122 120 121 116 108 103 98 94 92 94 100 104 112 119 119 116 103 89 97 98 91 88 87 87 89 89 89 100 111 116 119 122 127 121 113 112 114
85 79 76 78 80 82 83 82 83 84 80 76 76 78 82 85 90 92 93 97 98 98 99 94 89 88 85 87 89 87 96 114 122 121 121 118 112 116 117 122 123 123 129 130 130 129 132 132 125 124 128 124 114 108 105 102 98 94 95 99 106 113 115 107 94 93 98 99 96 92 89 85 84 82 79 94 108 115 121 124 127 122 115 114 115
93 89 82 79 79 80 80 78 81 84 81 77 75 74 72 71 72 76 80 82 87 96 100 97 94 86 85 89 90 87 93 114 132 137 138 133 129 127 123 125 123 124 129 131 133 132 135 137 132 132 133 129 117 110 106 103 100 98 98 104 107 114 115 99 89 97 96 100 99 94 92 86 85 84 79 91 104 111 116 118 120 118 116 118 119
88 89 87 83 80 81 81 81 82 84 83 75 72 70 65 64 62 63 69 72 79 92 96 98 100 90 86 89 90 88 86 105 135 154 146 142 141 139 134 130 132 133 135 137 139 139 140 141 140 139 135 128 118 110 104 101 101 104 108 114 115 122 117 97 95 104 99 102 99 98 95 90 91 88 85 90 101 112 120 121 119 119 118 120 120
81 83 87 88 87 87 84 82 79 77 79 76 71 66 60 60 59 53 55 60 66 78 89 96 106 101 95 91 89 86 82 88 118 152 140 146 149 147 144 138 137 136 139 144 146 147 147 147 147 144 138 128 116 105 100 100 103 115 121 124 121 125 119 99 103 110 107 106 102 106 102 99 97 91 89 88 98 113 120 122 118 120 121 120 121
79 80 83 88 90 89 84 82 82 76 72 71 66 61 55 54 56 55 53 51 53 60 74 80 98 109 105 98 90 87 77 70 92 136 130 146 155 154 154 140 134 136 143 147 151 153 151 152 152 149 140 127 111 98 95 95 103 126 133 133 127 124 124 116 115 111 110 114 111 111 104 103 102 95 91 87 98 113 118 122 119 120 123 123 124
79 79 78 80 84 86 82 83 87 83 77 74 65 55 42 42 49 49 48 48 58 67 62 64 92 117 110 110 103 98 85 67 90 137 133 154 160 155 154 143 136 136 139 145 150 153 156 157 157 155 144 128 107 98 100 95 100 122 133 136 134 129 131 138 136 121 117 117 118 113 105 106 104 100 94 88 98 114 119 123 121 121 123 125 125
80 80 77 77 77 79 82 83 79 76 81 78 61 49 34 29 40 36 29 34 57 74 68 69 86 103 102 108 101 101 108 92 111 141 152 172 162 152 152 147 144 140 139 144 148 152 161 161 162 163 155 137 112 103 105 101 100 115 129 137 141 139 137 139 135 136 129 114 121 122 115 113 108 104 99 94 99 112 120 124 124 124 125 126 126
80 79 77 77 76 73 75 79 76 71 76 66 49 50 40 15 2 15 19 11 34 54 59 69 73 82 84 83 80 84 102 117 142 165 186 183 165 160 154 149 151 150 146 148 149 152 162 167 171 171 165 152 124 111 107 104 104 113 127 137 148 151 144 140 128 135 133 123 127 127 125 121 112 108 106 104 105 112 121 124 125 126 128 129 129
75 75 75 74 73 71 69 70 73 68 60 61 56 61 63 17 339 349 6 350 359 22 30 50 55 67 74 67 73 122 108 129 158 187 201 172 163 169 159 154 154 155 157 158 153 149 157 171 180 179 176 167 142 122 109 107 111 118 133 147 157 160 162 157 127 136 140 131 123 121 126 124 116 111 111 114 116 115 118 122 126 129 131 132 130
69 69 70 70 72 72 71 67 66 66 58 64 64 59 75 68 330 328 338 334 347 7 10 19 26 37 62 65 84 191 153 144 160 180 202 162 164 171 162 160 154 154 159 162 159 149 150 169 185 190 187 178 164 135 112 112 120 131 148 157 161 175 187 152 108 136 140 123 119 127 130 125 118 116 116 119 124 122 119 123 131 135 135 135 131
68 66 65 66 68 69 67 64 61 65 66 62 61 56 64 88 131 273 295 308 337 358 4 13 37 27 48 83 214 199 165 161 164 162 193 183 170 172 172 168 158 158 160 164 164 150 150 171 191 198 196 188 180 157 127 123 137 154 164 163 177 201 197 94 93 132 131 121 124 137 136 128 122 120 122 123 128 131 129 131 135 139 138 137 134
72 66 62 59 61 63 61 62 59 62 64 58 58 57 61 76 119 159 226 252 318 343 347 13 80 65 41 81 228 216 178 168 168 158 189 193 166 170 174 169 165 168 166 163 160 149 154 173 190 201 201 195 187 174 165 152 161 176 177 173 189 211 169 95 99 119 125 121 123 137 138 132 128 127 128 128 131 136 140 138 137 140 139 138 139
73 69 63 58 59 62 58 61 63 66 61 51 53 48 50 57 63 89 100 220 291 309 317 1 50 156 175 206 219 224 201 179 178 169 185 180 156 166 168 167 169 173 171 160 155 157 162 169 184 195 198 200 190 189 189 170 174 190 189 185 172 159 139 124 118 111 124 122 129 143 143 139 135 134 134 133 135 139 145 146 144 143 143 144 143
73 71 65 57 56 58 57 56 56 60 57 46 45 39 34 35 32 34 36 27 355 321 312 329 302 225 194 206 214 221 210 199 193 179 182 170 158 162 158 161 167 175 175 160 154 165 168 158 174 186 192 203 197 197 201 180 182 193 199 203 166 135 141 142 126 115 122 125 140 148 148 146 138 138 142 138 138 143 150 152 152 151 150 150 147
74 69 62 56 51 50 49 46 45 45 44 39 35 33 29 26 20 7 12 20 11 353 318 309 304 283 230 225 232 223 220 215 200 187 192 193 182 169 161 162 162 171 177 166 159 175 189 164 173 187 191 203 198 197 209 199 199 184 193 213 159 140 145 151 138 114 124 136 147 149 150 148 140 144 146 142 145 152 159 157 156 156 155 154 152
74 67 60 54 48 46 45 41 39 36 35 33 24 22 23 22 15 4 2 360 359 358 328 324 317 297 269 242 240 229 231 224 204 199 202 206 204 189 180 175 165 166 176 171 159 177 208 190 190 200 196 198 195 197 208 209 216 191 174 183 160 149 151 156 133 114 133 145 149 152 153 148 146 150 148 150 159 162 163 162 159 158 158 157 156
76 70 64 57 50 47 46 44 40 34 29 25 20 15 15 13 7 6 4 352 345 345 340 333 304 290 280 243 237 235 236 231 218 216 211 212 212 206 197 188 184 180 185 182 163 186 210 208 210 212 202 196 193 194 202 206 224 227 175 181 179 154 156 156 133 130 145 150 153 160 158 153 152 154 158 163 173 175 168 165 162 160 160 161 160
79 75 69 60 53 47 45 44 41 36 29 22 17 11 8 4 359 360 357 347 337 332 330 324 310 285 280 258 238 238 240 239 232 226 221 220 219 213 208 202 201 195 196 196 186 197 206 213 219 219 210 199 196 193 204 205 217 240 200 187 185 156 157 151 142 145 155 156 157 165 164 159 158 157 165 169 173 179 170 165 167 164 161 163 165
81 78 72 63 54 47 43 41 38 34 29 23 16 8 1 356 354 353 346 341 333 323 323 322 313 287 277 271 249 240 239 240 238 234 231 225 225 223 216 209 206 201 200 201 199 202 207 214 219 221 215 205 199 201 214 212 210 231 218 199 185 164 160 150 153 156 164 164 159 167 169 164 162 159 166 173 171 173 170 169 172 171 167 167 168
83 79 72 64 55 48 43 37 33 28 24 21 15 8 359 353 349 344 342 339 329 319 317 315 309 306 296 266 256 246 236 236 236 235 235 231 231 233 227 214 209 206 202 204 206 207 208 212 216 217 213 209 207 209 218 219 217 221 222 213 188 171 162 153 159 160 171 173 161 165 172 170 165 162 167 175 174 174 178 180 178 176 176 174 171
83 78 71 64 57 50 42 35 29 24 20 17 13 8 359 352 345 341 340 337 334 324 316 311 310 315 313 277 257 250 237 234 235 233 234 234 232 232 229 220 213 210 205 205 209 212 213 212 215 215 212 211 208 213 222 226 224 215 217 214 191 178 167 160 158 161 176 179 163 163 174 175 169 167 172 175 178 181 185 187 184 181 180 181 178
80 75 72 66 60 52 43 35 27 23 19 15 12 7 1 352 345 342 339 336 339 333 323 320 314 312 312 304 267 252 244 235 232 233 235 234 234 232 228 225 217 211 208 206 207 214 217 214 214 214 215 215 211 216 223 230 233 225 216 206 191 184 173 161 155 163 179 182 170 165 171 176 173 175 179 179 181 187 187 185 187 186 183 184 184
82 77 74 67 59 52 44 36 26 22 20 16 11 6 1 354 348 344 341 337 336 336 332 328 322 316 313 311 293 270 254 247 236 231 238 238 239 236 231 227 219 213 209 207 210 213 217 216 215 215 216 216 216 216 218 229 235 232 221 208 195 189 185 171 152 164 183 185 178 171 169 171 175 181 185 184 186 191 188 186 190 190 188 187 188
85 77 70 63 54 46 39 33 26 24 22 19 13 8 3 358 352 348 345 339 332 333 334 333 330 321 316 316 316 304 271 262 253 236 238 240 241 240 236 231 221 217 215 214 217 216 214 214 214 216 217 216 217 216 216 224 223 209 208 207 200 191 194 185 158 167 184 191 185 177 173 171 174 179 183 189 193 195 192 191 191 191 193 193 193
83 76 68 61 53 45 37 30 25 24 25 23 18 11 5 0 357 354 348 342 335 331 332 335 334 329 324 323 327 325 312 283 267 253 244 240 239 240 238 235 226 223 223 223 226 225 218 216 216 217 217 215 215 215 214 216 214 203 194 199 202 194 195 192 173 172 180 192 192 185 181 175 175 176 178 186 193 198 198 195 190 187 193 195 195
80 73 66 59 53 47 39 30 24 25 25 25 23 17 10 3 358 356 352 347 338 332 334 333 330 335 332 327 334 335 335 336 300 265 255 244 241 243 238 236 234 227 224 224 227 230 223 219 218 216 218 217 213 213 215 212 207 205 197 197 201 197 196 192 184 180 179 189 194 193 190 181 179 178 178 181 185 194 199 197 192 188 190 194 194
82 71 65 58 55 51 40 31 25 24 22 22 23 20 15 8 359 352 351 350 343 337 337 333 333 340 336 333 338 337 337 340 332 298 267 253 244 245 240 232 236 234 227 223 224 226 225 222 220 217 219 219 215 212 212 208 203 207 204 196 199 202 199 193 188 184 183 189 194 197 196 190 184 182 184 185 184 189 195 198 194 190 190 193 194
90 80 73 59 58 54 41 32 25 22 19 18 18 17 14 11 4 353 345 343 342 344 340 335 338 340 340 342 338 334 334 330 329 329 301 270 251 245 242 233 234 238 233 227 225 224 225 224 222 219 218 218 216 213 212 206 198 203 206 198 197 202 201 196 191 188 187 190 195 198 199 198 192 189 189 191 188 183 190 198 197 195 192 190 192
107 105 101 65 56 52 41 32 25 21 19 18 18 15 12 10 5 359 351 339 332 337 339 337 337 338 341 342 334 327 324 320 323 328 319 297 276 253 242 236 235 239 237 232 229 225 223 223 224 223 217 216 216 214 212 204 197 202 206 199 195 201 206 200 192 192 194 193 193 196 201 204 199 196 195 195 194 186 186 195 198 199 197 191 193
146 169 181 87 50 44 39 31 24 22 20 19 19 15 11 8 3 360 356 345 333 326 327 332 335 342 345 341 335 330 323 320 319 318 314 309 301 280 255 244 240 242 239 233 230 228 224 221 224 225 219 216 215 213 207 197 196 203 205 202 199 203 208 206 197 193 194 194 194 194 199 205 204 201 201 200 200 196 192 196 198 199 197 196 196
181 200 203 98 46 37 35 28 21 21 20 17 16 13 10 4 359 357 353 345 338 328 321 323 323 329 336 337 338 339 336 328 320 314 309 305 302 298 280 256 243 244 244 237 232 232 229 225 225 224 221 217 212 206 198 191 192 200 205 205 205 211 214 210 205 198 195 194 194 195 196 201 205 204 205 205 204 203 201 201 204 201 195 195 198
192 207 203 117 42 32 33 25 17 17 18 15 13 11 8 2 357 355 349 342 339 333 326 321 316 315 317 320 325 328 330 325 321 316 307 300 295 295 291 273 251 245 249 244 238 235 231 229 228 224 220 217 216 206 191 188 193 200 206 206 204 217 222 216 210 205 198 195 194 196 198 199 204 204 203 207 208 209 209 207 209 207 201 199 198
197 206 200 173 39 27 30 21 14 13 14 12 9 5 3 360 356 354 349 342 337 333 327 321 318 318 314 316 319 321 319 315 316 314 306 299 293 289 286 284 269 252 250 246 240 238 232 230 231 229 224 218 218 210 197 197 200 201 208 217 206 205 221 220 216 212 202 197 196 196 200 200 202 205 204 206 208 210 211 212 212 209 207 206 205
203 205 200 194 208 267 18 13 5 7 9 5 3 0 357 357 356 353 350 346 340 336 333 329 326 324 320 318 322 326 323 315 313 311 304 297 294 289 281 279 277 261 254 251 246 242 236 232 230 231 231 226 220 213 208 209 211 207 204 224 217 199 215 210 208 215 207 199 198 197 202 204 202 205 207 208 208 209 209 209 212 211 208 207 209
207 205 202 199 206 222 281 352 346 356 2 359 359 358 357 357 356 353 353 351 347 344 344 340 335 329 323 319 317 317 319 319 320 317 311 306 299 294 285 277 274 264 253 251 251 246 240 236 231 229 231 235 231 220 211 212 218 216 201 210 227 213 219 192 189 211 205 198 201 200 202 205 204 206 209 212 210 209 207 207 210 212 212 209 207
211 207 201 200 206 215 238 305 328 342 352 355 357 358 358 358 356 355 354 350 347 348 344 337 333 330 325 320 315 307 304 307 313 314 313 314 309 303 297 286 276 267 253 248 249 247 244 241 235 230 227 230 238 239 225 213 221 223 214 221 235 232 219 192 184 194 196 199 204 202 204 206 207 210 210 212 212 210 210 207 207 210 213 213 209
212 206 199 199 206 214 226 268 309 330 343 352 354 357 359 357 356 355 352 347 344 343 338 332 329 328 325 322 316 308 302 296 300 307 308 313 317 312 306 298 287 273 257 248 247 246 246 246 241 236 228 225 234 246 243 225 224 225 222 226 232 229 226 224 220 183 174 204 208 203 208 207 208 215 214 213 213 212 213 210 209 211 214 216 212
210 205 202 201 205 213 218 240 285 317 333 345 351 356 358 356 355 354 352 348 342 337 334 331 331 330 329 325 320 313 306 295 293 300 305 316 327 324 315 303 291 280 263 251 250 248 245 247 246 243 238 230 229 236 241 236 232 226 223 226 228 227 226 238 249 236 175 187 197 204 210 209 211 216 216 215 214 215 215 214 213 213 216 219 216
210 209 208 204 205 210 212 227 260 295 316 334 345 351 355 355 355 355 353 348 342 338 334 331 332 332 330 328 324 318 312 301 291 291 303 321 332 334 335 319 295 282 267 255 253 252 245 244 245 243 241 238 232 232 236 237 237 234 227 224 225 225 226 232 241 254 244 196 178 198 199 201 214 217 216 215 213 217 218 216 217 217 219 220 220
210 212 212 209 208 208 210 221 242 277 301 321 334 345 353 353 355 355 353 349 344 340 336 333 336 334 330 330 330 325 318 307 292 288 303 320 329 336 347 346 325 294 268 259 258 256 249 245 244 241 242 242 237 235 235 235 240 245 239 229 226 223 224 229 225 231 246 226 188 196 188 194 211 212 213 214 212 214 218 217 217 218 220 221 221
212 212 215 215 213 212 211 218 235 263 289 309 324 339 349 351 354 354 351 349 345 342 338 335 336 333 330 332 333 329 321 310 293 286 300 319 329 336 345 355 354 333 286 273 270 262 255 250 246 244 243 240 237 240 240 238 242 249 249 241 240 237 228 229 222 208 222 240 230 211 194 202 212 209 205 209 212 214 216 218 218 219 221 222 222